Regional Weather Roundup
Issued by NWS

Home | Current Version | Previous Version | Graphics & Text | Print | Product List | Glossary On
Versions: 1 2 3 4 5 6 7 8 9 10 11 12 13 14 15 16 17 18 19 20 21 22 23 24 25 26 27 28 29 30 31 32 33 34 35 36 37 38 39 40 41 42 43 44 45 46 47 48 49 50
000
ASUS43 KDMX 250206
RWRIA

WEATHER ROUNDUP FOR IOWA
NATIONAL WEATHER SERVICE DES MOINES IA
800 PM CST FRI NOV 24 2017

NOTE: "FAIR" INDICATES FEW OR NO CLOUDS BELOW 12,000 FEET WITH NO
SIGNIFICANT WEATHER AND/OR OBSTRUCTIONS TO VISIBILITY.

* - THESE STATIONS ARE NOT NWS STATIONS...THUS NOT UNDER NWS
QUALITY CONTROL.  THEY ALSO DO NOT REPORT WEATHER SUCH
AS PRECIPITATION OR FOG.

IAZ001>003-012>014-020>022-031>034-043>046-250300-
   NORTHWEST IOWA

CITY           SKY/WX    TMP DP  RH WIND       PRES   REMARKS
CARROLL *      CLEAR     48  37  66 NW15      29.80R
CHEROKEE *     CLEAR     44  35  70 W5        29.83R
DENISON *      CLEAR     46  36  66 N12       29.83R
LE MARS *      CLEAR     43  34  70 N7        29.83R
ORANGE CITY *  CLEAR     41  37  87 NW7       29.83R
SHELDON *      CLEAR     39  34  81 W9        29.80R WCI  33
SIOUX CITY     CLEAR     45  35  68 NW8       29.85R
SPENCER        CLEAR     40  34  79 W12       29.80R WCI  33
STORM LAKE *   CLEAR     43  36  75 NW13      29.81R
$$

IAZ055>058-069>071-079>083-090>094-250300-
   SOUTHWEST IOWA

CITY           SKY/WX    TMP DP  RH WIND       PRES   REMARKS
ATLANTIC *     CLEAR     50  39  66 N16       29.81R
AUDUBON *      CLEAR     50  37  62 NW14G22   29.81R
CLARINDA *       N/A     55  39  54 NW14G24     N/A
COUNCIL BLFS * CLEAR     52  39  62 N16       29.83R
CRESTON *      CLEAR     52  39  62 NW17      29.78R
HARLAN  *      CLEAR     48  39  71 NW14      29.85R
LAMONI         CLEAR     56  40  55 NW20G25   29.75R
RED OAK *      CLEAR     54  39  58 NW13      29.82R
SHENANDOAH *   CLOUDY    55  39  54 NW14G21   29.83R
$$

IAZ047>049-059>061-072>074-084-250300-
   CENTRAL IOWA

CITY           SKY/WX    TMP DP  RH WIND       PRES   REMARKS
AMES           CLEAR     51  41  68 N22G30    29.75R
ANKENY *       CLEAR     54  41  62 N20       29.75R
BOONE *        CLEAR     50  39  66 NW17      29.75R
CHARITON *     CLEAR     55  41  58 NW17G25   29.72R
DES MOINES     CLEAR     55  41  59 NW16G23   29.74R
GRINNELL*      PTCLDY    53  42  66 NW16      29.70R
KNOXVILLE *    PTCLDY    57  41  54 NW21G26   29.69R
MARSHALLTOWN   CLEAR     50  40  68 NW21G29   29.71R
NEWTON *       PTCLDY    54  41  62 NW21G31   29.71R
PELLA *        CLOUDY    55  41  58 NW14G22   29.71R
PERRY *          N/A     50  35  57 NW13G24   29.79R
$$

IAZ004>006-015-016-023>025-035-036-250300-
   NORTH CENTRAL IOWA

CITY           SKY/WX    TMP DP  RH WIND       PRES   REMARKS
ALGONA *       CLEAR     43  37  81 NW10      29.75R
CLARION *      CLEAR     45  39  81 NW14      29.74R
ESTHERVILLE    CLEAR     41  35  79 NW15      29.76R
FORT DODGE *   CLEAR     46  37  71 NW6       29.77R
MASON CITY     CLEAR     44  37  76 NW15G25   29.72R
FOREST CITY *    N/A     45  37  76 NW13G21   29.72R
WEBSTER CITY * CLEAR     46  37  71 NW16      29.73R
IOWA FALLS *     N/A     49  40  70 NW23G29   29.73R
$$

IAZ007>011-017>019-026>030-037>042-050>054-066-250300-
   NORTHEAST IOWA

CITY           SKY/WX    TMP DP  RH WIND       PRES   REMARKS
CEDAR RAPIDS   CLOUDY    54  42  64 NW16G23   29.62R
CHARLES CITY * CLEAR     46  43  87 NW21G29   29.68R
CLINTON *      PTCLDY    48  41  76 W12       29.57R
DECORAH *      MOCLDY    50  43  76 NW18G30   29.60R
DUBUQUE        CLOUDY    54  41  61 W14       29.56R
MONTICELLO *   CLOUDY    55  43  62 W16G22    29.58R
OELWEIN *      CLOUDY    50  45  81 NW29      29.64R
WATERLOO       CLEAR     49  40  71 NW24G32   29.67R
$$

IAZ064-065-067-068-078-250300-
   EAST CENTRAL IOWA

CITY           SKY/WX    TMP DP  RH WIND       PRES   REMARKS
DAVENPORT      PTCLDY    51  41  68 W12       29.60R
IOWA CITY      CLOUDY    60  41  49 NW16G26   29.63R
MT. PLEASANT * PTCLDY    56  40  55 W6        29.64R
MUSCATINE *    MOCLDY    54  41  62 W8        29.61R
QUAD CITIES    CLEAR     58  41  53 W12       29.58R
$$

IAZ062-063-075>077-085>089-095>099-250300-
   SOUTHEAST IOWA

CITY           SKY/WX    TMP DP  RH WIND       PRES   REMARKS
BURLINGTON     PTCLDY    57  43  59 NW7       29.62R
FAIRFIELD *    MOCLDY    55  39  54 W18G24    29.65R
FORT MADISON * CLOUDY    57  43  58 NW7       29.64R
KEOKUK *       PTCLDY    59  43  55 NW6       29.63R
OSKALOOSA *      N/A     56  42  59 NW22G30   29.68R
OTTUMWA        PTCLDY    58  40  51 NW20G26   29.68R
WASHINGTON *   PTCLDY    54  43  66 NW14      29.65R
$$

ABBREVIATIONS USED IN REMARKS
   TC - TEMPERATURES IN CELSIUS
  WCI - WIND CHILL INDEX
   HX - HEAT INDEX
  VSB - VISIBILITY
$$




USA.gov is the U.S. government's official web portal to all federal, state and local government web resources and services.